Location: Unspecified
(0.0000°N, 0.0000°E)
Time: 07:06:45
(UTC+00:00)

Courier 1B Rocket - Visible Passes

Search period start: 25 June 2016 00:00
Search period end: 05 July 2016 00:00
Orbit: 921 x 1202 km, 28.2° (Epoch: 24 June)

Date Brightness Start Highest point End Pass type
(mag) Time Alt. Az. Time Alt. Az. Time Alt. Az.
25 Jun 6.7 04:10:45 21° S 04:10:45 21° S 04:14:02 10° SSE visible
26 Jun 7.0 05:00:28 11° SSW 05:01:26 11° SSW 05:03:36 10° S visible
27 Jun 7.2 04:03:39 12° S 04:03:39 12° S 04:04:27 10° SSE visible
27 Jun 7.6 21:13:17 10° N 21:14:41 11° NNE 21:14:41 11° NNE visible
28 Jun 7.8 22:03:01 10° NNW 22:03:29 12° NNW 22:03:29 12° NNW visible
29 Jun 7.3 21:02:57 10° NNW 21:05:57 16° N 21:05:57 16° N visible
30 Jun 7.4 20:03:56 10° N 20:05:48 11° NNE 20:07:42 10° NE visible
30 Jun 7.6 21:53:39 10° NW 21:54:47 14° NNW 21:54:47 14° NNW visible
01 Jul 7.0 20:53:19 10° NNW 20:57:19 22° N 20:57:19 22° N visible
02 Jul 7.1 19:53:25 10° N 19:57:33 16° NNE 19:59:52 14° NE visible
02 Jul 7.4 21:44:34 10° NW 21:46:13 18° NW 21:46:13 18° NW visible
03 Jul 7.4 18:55:03 10° NNE 18:56:02 10° NNE 18:57:01 10° NNE visible
03 Jul 6.5 20:44:00 10° NW 20:48:49 32° N 20:48:49 32° N visible
04 Jul 6.7 19:43:46 10° NNW 19:49:08 23° NNE 19:51:27 20° NE visible
04 Jul 7.2 21:35:44 10° NW 21:37:49 21° NW 21:37:49 21° NW visible
